Back to catalog

STARLINK-30429

AliveCommunicationsVLEO
NORAD 57876·PAYLOAD·🇺🇸 United States

Launched Sep 16, 2023 from Cape Canaveral Space Force Station

Loading…

Next Passes (next 24 hours)

TLE

FreshSource: CelesTrak SupGP

Epoch: Sep 14, 2026, 14:32 UTC

1 57876C 23144N   26257.60604167  .00048987  00000+0  17746-2 0  2578
2 57876  43.0015 298.5979 0001749 275.2440 182.3881 15.27548245    17

Track STARLINK-30429 in real time with AllMySat

Download on the App Store